20051104,000012,86406,32.706320,-117.236273,0.0,20.176,0.811,0.724,941.85,0.0,0.226,16.903,16.864, NaN,0.000,   NaN,17.81,1016.60,72.84,17.85,0.5,351.4,1.6,1.1,310.3,300.6,1.6,1.0,NaN, NaN,20.0,310.0,298.6,1131062411,1131062411,1,0.0,000011,000011,310.0,32.706168,-117.236200,NaN,NaN,NaN,20.453, NaN,NaN,NaN, NaN, NaN
20051104,000041,86435,32.706305,-117.236272,0.0,20.177,0.811,0.724,908.12,0.0,0.223,16.903,16.865, NaN,0.000,   NaN,17.77,1016.61,72.83,17.83,355.8,358.0,1.9,1.9,305.7,308.0,1.9,1.8,NaN, NaN,18.0,310.3,298.6,1131062441,1131062440,1,0.0,000041,000040,310.3,32.706160,-117.236212,NaN,NaN,NaN,20.454, NaN,NaN,NaN, NaN, NaN
20051104,000112,86466,32.706301,-117.236267,0.0,20.178,0.811,0.724,897.19,0.0,0.227,16.905,16.865, NaN,0.000,   NaN,17.74,1016.60,73.14,17.78,342.7,345.1,2.2,2.5,292.7,295.0,2.1,2.4,NaN, NaN,18.0,310.0,298.6,1131062471,1131062471,1,0.0,000072,000071,310.0,32.706163,-117.236212,NaN,NaN,NaN,20.455, NaN,NaN,NaN, NaN, NaN
20051104,000142,86496,32.706301,-117.236255,0.0,20.180,0.811,0.724,891.06,0.0,0.227,16.903,16.865, NaN,0.000,   NaN,17.70,1016.60,73.38,17.79,326.1,317.6,1.7,1.8,275.6,266.2,1.7,1.8,NaN, NaN,17.0,309.8,298.6,1131062501,1131062501,1,0.0,000102,000101,309.8,32.706183,-117.236215,NaN,NaN,NaN,20.457, NaN,NaN,NaN, NaN, NaN
20051104,000211,86526,32.706313,-117.236260,0.0,20.182,0.811,0.724,867.38,0.0,0.219,16.904,16.866, NaN,0.000,   NaN,17.72,1016.63,73.17,17.79,342.9,332.2,1.5,1.6,292.5,280.9,1.4,1.6,NaN, NaN,17.0,309.8,298.6,1131062531,1131062530,1,0.0,000131,000130,309.8,32.706186,-117.236203,NaN,NaN,NaN,20.459, NaN,NaN,NaN, NaN, NaN
20051104,000241,86555,32.706290,-117.236272,0.0,20.184,0.811,0.724,810.75,0.0,0.215,16.904,16.866, NaN,0.000,   NaN,17.65,1016.60,72.86,17.75,354.0,350.9,1.9,2.1,303.7,300.5,1.9,2.0,NaN, NaN,18.0,309.8,298.6,1131062561,1131062560,1,0.0,000161,000160,309.8,32.706178,-117.236192,NaN,NaN,NaN,20.461, NaN,NaN,NaN, NaN, NaN
20051104,000311,86585,32.706293,-117.236295,0.0,20.185,0.811,0.724,698.40,0.0,0.205,16.906,16.869, NaN,0.000,   NaN,17.59,1016.61,73.18,17.71,347.8,333.4,1.6,1.8,297.4,282.7,1.5,1.7,NaN, NaN,19.0,310.0,298.6,1131062591,1131062591,1,0.0,000191,000191,310.0,32.706166,-117.236202,NaN,NaN,NaN,20.462, NaN,NaN,NaN, NaN, NaN
20051104,000341,86615,32.706295,-117.236300,0.0,20.187,0.810,0.724,609.98,0.0,0.198,16.917,16.881, NaN,0.000,   NaN,17.59,1016.63,73.40,17.71,343.2,335.6,0.9,1.3,292.4,284.8,0.9,1.3,NaN, NaN,21.0,309.8,298.6,1131062621,1131062620,1,0.0,000221,000220,309.8,32.706173,-117.236212,NaN,NaN,NaN,20.464, NaN,NaN,NaN, NaN, NaN
20051104,000411,86645,32.706271,-117.236297,0.0,20.188,0.810,0.724,483.73,0.0,0.188,16.931,16.897, NaN,0.000,   NaN,17.58,1016.60,73.29,17.71,344.4,356.6,1.3,1.2,293.7,306.3,1.2,1.2,NaN, NaN,20.0,310.0,298.6,1131062651,1131062650,1,0.0,000251,000250,310.0,32.706175,-117.236193,NaN,NaN,NaN,20.465, NaN,NaN,NaN, NaN, NaN
20051104,000441,86676,32.706273,-117.236283,0.0,20.190,0.810,0.724,376.86,0.0,0.180,16.946,16.911, NaN,0.000,   NaN,17.56,1016.61,73.39,17.72,357.6,12.2,1.8,1.3,307.7,322.4,1.8,1.2,NaN, NaN,19.0,310.0,298.6,1131062681,1131062680,1,0.0,000281,000280,310.0,32.706175,-117.236202,NaN,NaN,NaN,20.467, NaN,NaN,NaN, NaN, NaN
20051104,000511,86705,32.706288,-117.236275,0.0,20.192,0.810,0.724,287.74,0.0,0.178,16.965,16.928, NaN,0.000,   NaN,17.49,1016.61,73.40,17.71,0.3,14.9,1.8,1.5,310.2,325.1,1.7,1.5,NaN, NaN,19.0,309.6,298.6,1131062711,1131062710,1,0.0,000311,000310,309.6,32.706146,-117.236213,NaN,NaN,NaN,20.469, NaN,NaN,NaN, NaN, NaN
20051104,000541,86735,32.706290,-117.236275,0.0,20.194,0.810,0.724,241.99,0.0,0.171,16.982,16.950, NaN,0.000,   NaN,17.46,1016.60,73.47,17.68,3.2,8.5,1.9,1.9,313.0,318.3,1.8,1.8,NaN, NaN,17.0,309.6,298.6,1131062741,1131062740,1,0.0,000341,000340,309.6,32.706156,-117.236197,NaN,NaN,NaN,20.471, NaN,NaN,NaN, NaN, NaN
20051104,000611,86765,32.706283,-117.236268,0.0,20.195,0.810,0.724,230.02,0.0,0.170,17.000,16.969, NaN,0.000,   NaN,17.39,1016.63,73.65,17.61,359.2,359.4,2.1,1.9,308.8,308.8,2.1,1.8,NaN, NaN,16.0,309.9,298.6,1131062771,1131062771,1,0.0,000371,000371,309.9,32.706161,-117.236203,NaN,NaN,NaN,20.472, NaN,NaN,NaN, NaN, NaN
20051104,000641,86795,32.706276,-117.236283,0.0,20.196,0.810,0.724,226.29,0.0,0.170,17.019,16.986, NaN,0.000,   NaN,17.39,1016.57,73.96,17.61,343.3,332.3,1.6,1.5,292.2,280.9,1.6,1.4,NaN, NaN,16.0,309.5,298.6,1131062801,1131062800,1,0.0,000401,000400,309.5,32.706178,-117.236215,NaN,NaN,NaN,20.473, NaN,NaN,NaN, NaN, NaN
20051104,000711,86825,32.706276,-117.236280,0.0,20.198,0.810,0.724,223.25,0.0,0.174,17.039,17.006, NaN,0.000,   NaN,17.37,1016.62,74.21,17.62,344.4,328.4,1.5,1.4,293.5,276.8,1.4,1.3,NaN, NaN,14.0,309.6,298.6,1131062831,1131062830,1,0.0,000431,000430,309.6,32.706181,-117.236225,NaN,NaN,NaN,20.475, NaN,NaN,NaN, NaN, NaN
20051104,000742,86856,32.706268,-117.236280,0.0,20.199,0.810,0.724,220.25,0.0,0.170,17.053,17.021, NaN,0.000,   NaN,17.34,1016.62,74.51,17.56,337.9,340.2,2.1,1.9,287.5,289.5,2.1,1.8,NaN, NaN,14.0,310.1,298.6,1131062861,1131062860,1,0.0,000461,000460,310.1,32.706190,-117.236215,NaN,NaN,NaN,20.476, NaN,NaN,NaN, NaN, NaN
20051104,000811,86885,32.706288,-117.236287,0.0,20.201,0.811,0.725,217.45,0.0,0.173,17.062,17.030, NaN,0.000,   NaN,17.28,1016.61,74.52,17.55,340.6,345.5,2.4,2.5,290.4,295.3,2.4,2.4,NaN, NaN,14.0,309.6,298.6,1131062891,1131062890,1,0.0,000491,000490,309.6,32.706191,-117.236192,NaN,NaN,NaN,20.478, NaN,NaN,NaN, NaN, NaN
20051104,000842,86916,32.706330,-117.236302,0.0,20.202,0.810,0.724,214.72,0.0,0.169,17.068,17.033, NaN,0.000,   NaN,17.22,1016.60,74.64,17.50,342.9,344.3,2.1,2.2,292.4,293.9,2.1,2.2,NaN, NaN,19.0,309.6,298.6,1131062921,1131062921,1,0.0,000522,000521,309.6,32.706206,-117.236182,NaN,NaN,NaN,20.479, NaN,NaN,NaN, NaN, NaN
20051104,000911,86945,32.706323,-117.236298,0.0,20.204,0.811,0.725,212.03,0.0,0.169,17.072,17.035, NaN,0.000,   NaN,17.21,1016.60,74.74,17.49,339.9,334.5,1.6,1.7,288.8,283.6,1.6,1.7,NaN, NaN,22.0,310.0,298.6,1131062951,1131062950,1,0.0,000551,000550,310.0,32.706201,-117.236192,NaN,NaN,NaN,20.481, NaN,NaN,NaN, NaN, NaN
20051104,000942,86976,32.706306,-117.236303,0.0,20.205,0.811,0.725,209.50,0.0,0.173,17.066,17.031, NaN,0.000,   NaN,17.23,1016.60,74.74,17.49,342.5,319.8,1.3,1.1,291.7,268.2,1.2,1.1,NaN, NaN,22.0,310.1,298.6,1131062982,1131062981,1,0.0,000582,000581,310.1,32.706193,-117.236203,NaN,NaN,NaN,20.482, NaN,NaN,NaN, NaN, NaN
20051104,001011,87005,32.706283,-117.236315,0.0,20.207,0.810,0.724,206.51,0.0,0.173,17.057,17.019, NaN,0.000,   NaN,17.25,1016.60,74.57,17.50,344.4,340.7,0.7,1.0,290.1,290.1,0.7,1.0,NaN, NaN,20.0,310.0,298.6,1131063011,1131063010,1,0.0,000611,000610,310.0,32.706178,-117.236183,NaN,NaN,NaN,20.484, NaN,NaN,NaN, NaN, NaN
20051104,001042,87036,32.706331,-117.236298,0.0,20.209,0.811,0.725,203.73,0.0,0.168,17.046,17.007, NaN,0.000,   NaN,17.27,1016.60,74.46,17.50,349.1,4.2,0.8,1.3,296.6,314.4,0.8,1.3,NaN, NaN,24.0,309.8,298.6,1131063042,1131063041,1,0.0,000642,000641,309.8,32.706173,-117.236173,NaN,NaN,NaN,20.486, NaN,NaN,NaN, NaN, NaN
20051104,001112,87066,32.706313,-117.236287,0.0,20.210,0.811,0.725,201.50,0.0,0.168,17.036,16.998, NaN,0.000,   NaN,17.28,1016.60,74.28,17.52,336.1,329.6,1.2,1.7,285.2,279.0,1.2,1.7,NaN, NaN,23.0,309.8,298.6,1131063071,1131063071,1,0.0,000672,000671,309.8,32.706160,-117.236172,NaN,NaN,NaN,20.487, NaN,NaN,NaN, NaN, NaN
20051104,001141,87095,32.706298,-117.236290,0.0,20.212,0.811,0.725,199.11,0.0,0.168,17.025,16.986, NaN,0.000,   NaN,17.28,1016.60,74.14,17.53,308.7,278.7,1.1,1.7,251.0,226.4,1.1,1.7,NaN, NaN,21.0,309.5,298.6,1131063101,1131063100,1,0.0,000701,000700,309.5,32.706205,-117.236188,NaN,NaN,NaN,20.489, NaN,NaN,NaN, NaN, NaN
20051104,001211,87125,32.706301,-117.236275,0.0,20.213,0.811,0.725,196.76,0.0,0.168,17.017,16.979, NaN,0.000,   NaN,17.30,1016.60,74.12,17.56,317.0,279.2,0.7,1.2,214.3,225.8,0.7,1.2,NaN, NaN,20.0,309.7,298.6,1131063131,1131063130,1,0.0,000731,000730,309.7,32.706205,-117.236178,NaN,NaN,NaN,20.490, NaN,NaN,NaN, NaN, NaN
20051104,001242,87156,32.706295,-117.236283,0.0,20.215,0.811,0.725,194.16,0.0,0.168,17.012,16.972, NaN,0.000,   NaN,17.29,1016.60,73.92,17.58,328.4,308.4,0.8,1.0,257.0,256.1,0.8,1.0,NaN, NaN,20.0,310.0,298.6,1131063162,1131063161,1,0.0,000762,000761,310.0,32.706203,-117.236195,NaN,NaN,NaN,20.492, NaN,NaN,NaN, NaN, NaN
20051104,001312,87186,32.706288,-117.236290,0.0,20.216,0.811,0.725,192.22,0.0,0.168,17.004,16.965, NaN,0.000,   NaN,17.28,1016.60,74.04,17.58,327.2,316.4,1.3,1.2,275.7,264.9,1.2,1.2,NaN, NaN,19.0,310.0,298.6,1131063191,1131063191,1,0.0,000792,000791,310.0,32.706186,-117.236210,NaN,NaN,NaN,20.493, NaN,NaN,NaN, NaN, NaN
20051104,001341,87215,32.706283,-117.236292,0.0,20.217,0.811,0.725,190.05,0.0,0.167,16.996,16.955, NaN,0.000,   NaN,17.26,1016.61,74.05,17.53,327.6,316.0,1.4,1.6,276.1,264.7,1.4,1.5,NaN, NaN,18.0,309.6,298.6,1131063221,1131063220,1,0.0,000821,000820,309.6,32.706180,-117.236190,NaN,NaN,NaN,20.494, NaN,NaN,NaN, NaN, NaN
20051104,001412,87246,32.706285,-117.236283,0.0,20.219,0.811,0.725,187.66,0.0,0.171,16.987,16.949, NaN,0.000,   NaN,17.21,1016.60,73.96,17.52,333.4,336.8,1.3,1.8,282.2,286.0,1.3,1.8,NaN, NaN,18.0,309.8,298.6,1131063251,1131063251,1,0.0,000852,000851,309.8,32.706156,-117.236212,NaN,NaN,NaN,20.496, NaN,NaN,NaN, NaN, NaN
20051104,001441,87275,32.706288,-117.236287,0.0,20.221,0.811,0.725,185.28,0.0,0.167,16.984,16.945, NaN,0.000,   NaN,17.19,1016.60,74.12,17.50,350.9,0.0,1.5,1.8,300.3,309.8,1.5,1.7,NaN, NaN,20.0,309.8,298.6,1131063281,1131063280,1,0.0,000881,000880,309.8,32.706166,-117.236228,NaN,NaN,NaN,20.498, NaN,NaN,NaN, NaN, NaN
20051104,001512,87306,32.706290,-117.236273,0.0,20.222,0.811,0.725,182.85,0.0,0.171,16.984,16.945, NaN,0.000,   NaN,17.20,1016.60,74.17,17.47,3.4,318.5,1.4,1.4,313.4,266.5,1.4,1.3,NaN, NaN,19.0,309.6,298.6,1131063312,1131063311,1,0.0,000912,000911,309.6,32.706175,-117.236220,NaN,NaN,NaN,20.499, NaN,NaN,NaN, NaN, NaN
20051104,001542,87336,32.706286,-117.236265,0.0,20.223,0.811,0.725,180.85,0.0,0.163,16.984,16.945, NaN,0.000,   NaN,17.22,1016.61,74.15,17.49,4.0,282.7,1.0,0.7,314.4,227.5,1.0,0.7,NaN, NaN,18.0,310.0,298.6,1131063341,1131063341,1,0.0,000942,000941,310.0,32.706180,-117.236193,NaN,NaN,NaN,20.500, NaN,NaN,NaN, NaN, NaN
20051104,001612,87366,32.706280,-117.236268,0.0,20.225,0.811,0.725,178.72,0.0,0.167,16.984,16.948, NaN,0.000,   NaN,17.22,1016.64,74.12,17.47,344.5,326.3,1.2,0.9,293.9,274.2,1.2,0.9,NaN, NaN,18.0,309.5,298.6,1131063372,1131063371,1,0.0,000972,000971,309.5,32.706183,-117.236192,NaN,NaN,NaN,20.502, NaN,NaN,NaN, NaN, NaN
20051104,001642,87396,32.706283,-117.236275,0.0,20.226,0.811,0.725,176.13,0.0,0.167,16.988,16.951, NaN,0.000,   NaN,17.17,1016.60,73.99,17.42,340.9,340.8,2.1,2.2,290.0,289.9,2.0,2.2,NaN, NaN,16.0,309.5,298.6,1131063402,1131063401,1,0.0,001002,001001,309.5,32.706190,-117.236198,NaN,NaN,NaN,20.503, NaN,NaN,NaN, NaN, NaN
20051104,001712,87427,32.706280,-117.236278,0.0,20.227,0.811,0.725,173.55,0.0,0.166,16.989,16.951, NaN,0.000,   NaN,17.15,1016.60,74.24,17.43,351.2,341.3,2.2,2.1,300.6,288.9,2.1,2.1,NaN, NaN,15.0,309.5,298.6,1131063431,1131063430,1,0.0,001031,001030,309.5,32.706186,-117.236195,NaN,NaN,NaN,20.504, NaN,NaN,NaN, NaN, NaN
20051104,001742,87457,32.706291,-117.236267,0.0,20.229,0.811,0.725,171.34,0.0,0.166,16.989,16.952, NaN,0.000,   NaN,17.14,1016.60,74.34,17.41,346.3,337.5,1.8,1.4,295.3,284.5,1.8,1.4,NaN, NaN,14.0,309.5,298.6,1131063462,1131063461,1,0.0,001062,001061,309.5,32.706186,-117.236190,NaN,NaN,NaN,20.506, NaN,NaN,NaN, NaN, NaN
20051104,001812,87486,32.706288,-117.236260,0.0,20.231,0.811,0.725,169.39,0.0,0.170,16.992,16.953, NaN,0.000,   NaN,17.12,1016.60,74.66,17.38,340.3,351.5,1.7,2.0,289.1,300.7,1.6,1.9,NaN, NaN,14.0,309.5,298.6,1131063492,1131063491,1,0.0,001092,001091,309.5,32.706190,-117.236193,NaN,NaN,NaN,20.508, NaN,NaN,NaN, NaN, NaN
20051104,001842,87516,32.706278,-117.236260,0.0,20.231,0.811,0.725,167.53,0.0,0.166,16.996,16.956, NaN,0.000,   NaN,17.10,1016.61,75.13,17.34,336.7,349.9,2.0,2.5,285.6,299.3,1.9,2.5,NaN, NaN,14.0,309.3,298.6,1131063521,1131063521,1,0.0,001122,001121,309.3,32.706210,-117.236198,NaN,NaN,NaN,20.508, NaN,NaN,NaN, NaN, NaN
20051104,001912,87546,32.706271,-117.236265,0.0,20.233,0.811,0.725,165.39,0.0,0.166,16.996,16.958, NaN,0.000,   NaN,17.09,1016.62,75.51,17.32,329.2,337.3,2.6,2.3,278.0,286.1,2.5,2.2,NaN, NaN,14.0,309.5,298.6,1131063552,1131063551,1,0.0,001152,001151,309.5,32.706220,-117.236190,NaN,NaN,NaN,20.510, NaN,NaN,NaN, NaN, NaN
20051104,001941,87575,32.706271,-117.236282,0.0,20.234,0.811,0.725,163.04,0.0,0.166,16.999,16.959, NaN,0.000,   NaN,17.07,1016.63,75.56,17.36,333.3,338.3,2.4,2.3,282.2,287.3,2.4,2.2,NaN, NaN,15.0,310.0,298.6,1131063581,1131063580,1,0.0,001181,001180,310.0,32.706210,-117.236185,NaN,NaN,NaN,20.511, NaN,NaN,NaN, NaN, NaN
20051104,002012,87607,32.706271,-117.236278,0.0,20.236,0.811,0.725,160.51,0.0,0.166,17.001,16.962, NaN,0.000,   NaN,17.04,1016.61,75.59,17.28,334.1,335.0,2.6,2.7,283.6,284.5,2.5,2.6,NaN, NaN,14.0,310.0,298.6,1131063612,1131063611,1,0.0,001212,001211,310.0,32.706183,-117.236188,NaN,NaN,NaN,20.513, NaN,NaN,NaN, NaN, NaN
20051104,002042,87636,32.706276,-117.236292,0.0,20.238,0.811,0.725,158.52,0.0,0.165,17.006,16.968, NaN,0.000,   NaN,17.03,1016.62,75.72,17.26,347.4,350.2,2.0,2.0,297.3,300.3,1.9,2.0,NaN, NaN,16.0,309.8,298.6,1131063641,1131063641,1,0.0,001242,001241,309.8,32.706186,-117.236182,NaN,NaN,NaN,20.515, NaN,NaN,NaN, NaN, NaN
20051104,002112,87666,32.706280,-117.236292,0.0,20.239,0.811,0.725,155.70,0.0,0.162,17.011,16.972, NaN,0.000,   NaN,17.04,1016.63,75.52,17.27,4.5,14.6,1.3,1.3,314.4,325.0,1.2,1.2,NaN, NaN,17.0,309.3,298.6,1131063671,1131063671,1,0.0,001271,001271,309.3,32.706186,-117.236192,NaN,NaN,NaN,20.516, NaN,NaN,NaN, NaN, NaN
20051104,002142,87696,32.706281,-117.236295,0.0,20.241,0.811,0.725,153.16,0.0,0.165,17.015,16.976, NaN,0.000,   NaN,17.07,1016.61,75.27,17.30,9.3,15.8,1.6,1.4,318.8,325.8,1.5,1.3,NaN, NaN,18.0,308.8,298.6,1131063702,1131063701,1,0.0,001302,001301,308.8,32.706186,-117.236190,NaN,NaN,NaN,20.518, NaN,NaN,NaN, NaN, NaN
20051104,002212,87726,32.706280,-117.236295,0.0,20.243,0.811,0.725,151.19,0.0,0.161,17.020,16.980, NaN,0.000,   NaN,17.06,1016.62,75.06,17.33,9.7,13.2,2.3,1.7,319.1,322.8,2.3,1.7,NaN, NaN,16.0,309.8,298.6,1131063732,1131063731,1,0.0,001332,001331,309.8,32.706191,-117.236207,NaN,NaN,NaN,20.519, NaN,NaN,NaN, NaN, NaN
20051104,002242,87756,32.706278,-117.236280,0.0,20.244,0.811,0.725,148.82,0.0,0.165,17.023,16.985, NaN,0.000,   NaN,17.09,1016.63,75.06,17.35,4.0,1.1,2.6,1.8,313.8,310.6,2.6,1.7,NaN, NaN,16.0,310.3,298.6,1131063761,1131063761,1,0.0,001362,001361,310.3,32.706190,-117.236220,NaN,NaN,NaN,20.520, NaN,NaN,NaN, NaN, NaN
20051104,002312,87787,32.706283,-117.236272,0.0,20.246,0.811,0.725,146.39,0.0,0.165,17.029,16.990, NaN,0.000,   NaN,17.06,1016.62,75.00,17.34,353.7,354.9,2.6,2.1,303.7,304.8,2.5,2.1,NaN, NaN,18.0,310.0,298.6,1131063792,1131063791,1,0.0,001392,001391,310.0,32.706180,-117.236230,NaN,NaN,NaN,20.522, NaN,NaN,NaN, NaN, NaN
20051104,002342,87816,32.706298,-117.236260,0.0,20.247,0.811,0.725,144.16,0.0,0.164,17.032,16.997, NaN,0.000,   NaN,17.03,1016.66,75.25,17.27,350.9,356.8,2.4,2.2,300.7,306.6,2.3,2.1,NaN, NaN,16.0,309.6,298.6,1131063821,1131063821,1,0.0,001422,001421,309.6,32.706188,-117.236233,NaN,NaN,NaN,20.523, NaN,NaN,NaN, NaN, NaN
20051104,002412,87846,32.706295,-117.236265,0.0,20.249,0.811,0.725,141.71,0.0,0.168,17.036,16.999, NaN,0.000,   NaN,17.04,1016.68,75.30,17.26,4.9,11.2,2.1,1.6,314.6,321.2,2.0,1.5,NaN, NaN,16.0,308.9,298.6,1131063852,1131063851,1,0.0,001452,001451,308.9,32.706188,-117.236198,NaN,NaN,NaN,20.525, NaN,NaN,NaN, NaN, NaN
20051104,002442,87876,32.706291,-117.236272,0.0,20.250,0.811,0.725,139.24,0.0,0.168,17.041,17.001, NaN,0.000,   NaN,17.03,1016.68,75.28,17.28,0.8,7.0,2.1,1.9,310.0,316.6,2.1,1.9,NaN, NaN,16.0,309.5,298.6,1131063881,1131063881,1,0.0,001482,001481,309.6,32.706216,-117.236205,NaN,NaN,NaN,20.526, NaN,NaN,NaN, NaN, NaN
20051104,002512,87906,32.706301,-117.236250,0.0,20.251,0.811,0.725,137.60,0.0,0.164,17.045,17.006, NaN,0.000,   NaN,17.01,1016.69,75.44,17.27,355.1,358.4,2.0,2.0,304.6,307.9,2.0,2.0,NaN, NaN,15.0,310.3,298.6,1131063912,1131063912,1,0.0,001512,001512,310.3,32.706175,-117.236233,NaN,NaN,NaN,20.527, NaN,NaN,NaN, NaN, NaN
20051104,002542,87937,32.706280,-117.236300,0.0,20.253,0.810,0.725,136.70,0.0,0.164,17.049,17.011, NaN,0.000,   NaN,17.02,1016.70,75.55,17.27,2.2,7.6,2.0,1.9,312.4,317.7,2.0,1.8,NaN, NaN,15.0,310.0,298.6,1131063942,1131063941,1,0.0,001542,001541,310.0,32.706175,-117.236230,NaN,NaN,NaN,20.529, NaN,NaN,NaN, NaN, NaN
20051104,002613,87967,32.706283,-117.236302,0.0,20.253,0.810,0.725,134.94,0.0,0.160,17.060,17.025, NaN,0.000,   NaN,17.02,1016.71,75.47,17.27,351.1,351.0,1.9,1.9,300.8,300.8,1.8,1.9,NaN, NaN,19.0,309.6,298.6,1131063972,1131063972,1,0.0,001572,001572,309.6,32.706181,-117.236222,NaN,NaN,NaN,20.529, NaN,NaN,NaN, NaN, NaN
20051104,002642,87996,32.706283,-117.236287,0.0,20.255,0.810,0.725,134.07,0.0,0.168,17.075,17.041, NaN,0.000,   NaN,17.03,1016.71,75.47,17.26,353.6,318.7,1.4,1.2,303.5,266.2,1.3,1.2,NaN, NaN,19.0,309.5,298.6,1131064002,1131064001,1,0.0,001602,001601,309.5,32.706196,-117.236205,NaN,NaN,NaN,20.531, NaN,NaN,NaN, NaN, NaN
20051104,002712,88026,32.706283,-117.236283,0.0,20.256,0.810,0.725,132.55,0.0,0.168,17.088,17.054, NaN,0.000,   NaN,17.05,1016.67,75.50,17.27,356.6,328.2,1.6,1.5,306.6,275.9,1.5,1.5,NaN, NaN,17.0,309.5,298.6,1131064031,1131064031,1,0.0,001632,001631,309.5,32.706211,-117.236182,NaN,NaN,NaN,20.532, NaN,NaN,NaN, NaN, NaN
20051104,002742,88056,32.706271,-117.236297,0.0,20.257,0.810,0.725,130.71,0.0,0.167,17.111,17.077, NaN,0.000,   NaN,17.05,1016.72,75.69,17.28,338.1,337.0,1.3,1.7,282.1,285.8,1.3,1.7,NaN, NaN,17.0,309.6,298.6,1131064062,1131064062,1,0.0,001662,001662,309.6,32.706218,-117.236182,NaN,NaN,NaN,20.533, NaN,NaN,NaN, NaN, NaN
20051104,002812,88086,32.706258,-117.236303,0.0,20.259,0.811,0.726,129.22,0.0,0.167,17.135,17.101, NaN,0.000,   NaN,17.05,1016.71,75.61,17.28,3.3,14.9,1.2,1.2,312.4,325.6,1.2,1.2,NaN, NaN,17.0,309.6,298.6,1131064092,1131064091,1,0.0,001692,001691,309.6,32.706191,-117.236190,NaN,NaN,NaN,20.535, NaN,NaN,NaN, NaN, NaN
20051104,002842,88117,32.706283,-117.236273,0.0,20.260,0.810,0.725,127.39,0.0,0.163,17.164,17.133, NaN,0.000,   NaN,17.03,1016.74,75.47,17.29,12.7,16.0,1.6,1.2,322.8,326.5,1.6,1.1,NaN, NaN,16.0,310.0,298.6,1131064122,1131064122,1,0.0,001722,001722,310.0,32.706200,-117.236188,NaN,NaN,NaN,20.536, NaN,NaN,NaN, NaN, NaN
20051104,002912,88146,32.706306,-117.236262,0.0,20.261,0.810,0.725,125.72,0.0,0.163,17.204,17.176, NaN,0.000,   NaN,17.04,1016.74,75.70,17.27,341.6,352.2,1.6,1.4,290.5,301.6,1.5,1.4,NaN, NaN,15.0,310.0,298.6,1131064152,1131064151,1,0.0,001752,001751,310.0,32.706198,-117.236193,NaN,NaN,NaN,20.537, NaN,NaN,NaN, NaN, NaN
20051104,002942,88176,32.706310,-117.236257,0.0,20.263,0.810,0.725,124.74,0.0,0.167,17.243,17.214, NaN,0.000,   NaN,17.03,1016.74,75.82,17.27,336.8,350.6,1.7,1.7,285.6,299.9,1.6,1.6,NaN, NaN,15.0,309.8,298.6,1131064182,1131064181,1,0.0,001782,001781,309.8,32.706203,-117.236190,NaN,NaN,NaN,20.539, NaN,NaN,NaN, NaN, NaN
20051104,003012,88206,32.706298,-117.236282,0.0,20.264,0.810,0.725,124.22,0.0,0.163,17.277,17.249, NaN,0.000,   NaN,17.01,1016.75,75.78,17.28,1.1,0.9,2.2,2.0,310.7,310.6,2.2,1.9,NaN, NaN,17.0,309.5,298.6,1131064211,1131064211,1,0.0,001812,001811,309.5,32.706208,-117.236197,NaN,NaN,NaN,20.540, NaN,NaN,NaN, NaN, NaN
20051104,003042,88236,32.706305,-117.236262,0.0,20.265,0.811,0.726,122.78,0.0,0.163,17.303,17.275, NaN,0.000,   NaN,16.97,1016.73,75.86,17.28,3.0,357.7,2.2,2.4,312.6,307.1,2.1,2.3,NaN, NaN,16.0,309.1,298.6,1131064242,1131064241,1,0.0,001842,001841,309.1,32.706206,-117.236190,NaN,NaN,NaN,20.541, NaN,NaN,NaN, NaN, NaN
20051104,003112,88266,32.706286,-117.236302,0.0,20.266,0.810,0.725,121.01,0.0,0.163,17.324,17.296, NaN,0.000,   NaN,16.95,1016.76,76.03,17.22,347.1,355.0,2.0,2.5,296.2,304.1,1.9,2.5,NaN, NaN,16.0,309.5,298.6,1131064272,1131064271,1,0.0,001872,001871,309.5,32.706190,-117.236193,NaN,NaN,NaN,20.542, NaN,NaN,NaN, NaN, NaN
20051104,003142,88297,32.706265,-117.236322,0.0,20.268,0.811,0.726,118.69,0.0,0.167,17.332,17.302, NaN,0.000,   NaN,16.95,1016.72,76.21,17.20,351.5,355.3,2.2,2.1,300.9,304.7,2.1,2.0,NaN, NaN,20.0,309.8,298.6,1131064302,1131064301,1,0.0,001902,001901,309.8,32.706181,-117.236197,NaN,NaN,NaN,20.544, NaN,NaN,NaN, NaN, NaN
20051104,003212,88326,32.706288,-117.236262,0.0,20.270,0.811,0.726,116.88,0.0,0.163,17.334,17.303, NaN,0.000,   NaN,16.96,1016.74,76.17,17.22,8.4,6.7,2.3,1.7,318.4,316.9,2.2,1.7,NaN, NaN,14.0,310.0,298.6,1131064331,1131064331,1,0.0,001932,001931,310.0,32.706178,-117.236205,NaN,NaN,NaN,20.546, NaN,NaN,NaN, NaN, NaN
20051104,003242,88356,32.706305,-117.236258,0.0,20.271,0.810,0.725,114.62,0.0,0.163,17.332,17.297, NaN,0.000,   NaN,16.95,1016.76,75.93,17.23,8.0,13.7,2.2,2.4,318.1,324.0,2.1,2.3,NaN, NaN,14.0,309.8,298.6,1131064362,1131064361,1,0.0,001962,001961,309.8,32.706141,-117.236220,NaN,NaN,NaN,20.547, NaN,NaN,NaN, NaN, NaN
20051104,003312,88386,32.706311,-117.236263,0.0,20.271,0.811,0.726,112.83,0.0,0.162,17.322,17.290, NaN,0.000,   NaN,16.92,1016.74,75.82,17.20,351.2,1.4,2.1,2.7,300.9,311.2,2.0,2.6,NaN, NaN,15.0,309.6,298.6,1131064392,1131064391,1,0.0,001992,001991,309.6,32.706171,-117.236213,NaN,NaN,NaN,20.547, NaN,NaN,NaN, NaN, NaN
20051104,003342,88416,32.706293,-117.236275,0.0,20.273,0.811,0.726,110.49,0.0,0.162,17.317,17.283, NaN,0.000,   NaN,16.88,1016.75,75.91,17.19,346.8,343.7,2.1,2.1,296.3,293.0,2.0,2.1,NaN, NaN,14.0,309.8,298.6,1131064422,1131064421,1,0.0,002022,002021,309.8,32.706180,-117.236200,NaN,NaN,NaN,20.549, NaN,NaN,NaN, NaN, NaN
20051104,003412,88447,32.706283,-117.236270,0.0,20.274,0.811,0.726,108.58,0.0,0.162,17.310,17.276, NaN,0.000,   NaN,16.87,1016.76,75.91,17.18,350.8,344.8,2.3,2.2,300.5,294.2,2.3,2.2,NaN, NaN,15.0,310.1,298.6,1131064452,1131064451,1,0.0,002052,002051,310.1,32.706201,-117.236208,NaN,NaN,NaN,20.550, NaN,NaN,NaN, NaN, NaN
20051104,003442,88476,32.706283,-117.236263,0.0,20.275,0.811,0.726,106.69,0.0,0.162,17.304,17.271, NaN,0.000,   NaN,16.84,1016.76,75.80,17.12,341.8,343.5,2.6,2.8,291.5,293.3,2.6,2.8,NaN, NaN,16.0,310.1,298.6,1131064481,1131064481,1,0.0,002082,002081,310.1,32.706205,-117.236190,NaN,NaN,NaN,20.551, NaN,NaN,NaN, NaN, NaN
20051104,003512,88506,32.706280,-117.236285,0.0,20.276,0.811,0.726,104.04,0.0,0.162,17.294,17.263, NaN,0.000,   NaN,16.82,1016.76,75.99,17.08,348.8,341.3,2.1,2.6,298.7,291.1,2.1,2.6,NaN, NaN,16.0,309.9,298.6,1131064512,1131064511,1,0.0,002112,002111,309.9,32.706191,-117.236195,NaN,NaN,NaN,20.552, NaN,NaN,NaN, NaN, NaN
20051104,003542,88536,32.706258,-117.236360,0.0,20.278,0.811,0.726,101.51,0.0,0.162,17.285,17.248, NaN,0.000,   NaN,16.82,1016.77,76.22,17.11,353.6,352.3,2.1,2.5,303.5,302.2,2.0,2.4,NaN, NaN,17.0,309.8,298.6,1131064542,1131064541,1,0.0,002142,002141,309.8,32.706193,-117.236188,NaN,NaN,NaN,20.554, NaN,NaN,NaN, NaN, NaN
20051104,003612,88566,32.706276,-117.236317,0.0,20.279,0.811,0.726,99.25,0.0,0.162,17.280,17.243, NaN,0.000,   NaN,16.81,1016.77,76.25,17.10,357.8,359.2,2.9,2.8,307.5,309.2,2.8,2.7,NaN, NaN,17.0,310.0,298.6,1131064571,1131064571,1,0.0,002172,002171,310.0,32.706203,-117.236188,NaN,NaN,NaN,20.555, NaN,NaN,NaN, NaN, NaN
20051104,003642,88596,32.706276,-117.236280,0.0,20.280,0.811,0.726,96.42,0.0,0.161,17.281,17.244, NaN,0.000,   NaN,16.82,1016.79,76.33,17.11,2.5,359.9,2.6,2.6,312.7,310.0,2.6,2.5,NaN, NaN,13.0,310.3,298.6,1131064602,1131064601,1,0.0,002202,002201,310.3,32.706193,-117.236198,NaN,NaN,NaN,20.556, NaN,NaN,NaN, NaN, NaN